Lexington, KY

12:32 AM EST on February 08, 2016 (GMT -0500)
Blue Grass

Weather History for KLEX - March, 2012

Change the Weather History Date:

Wednesday, March 14, 2012

  Actual Average Record
Temperature  
Mean Temperature 64 °F 45 °F  
Max Temperature 77 °F 55 °F 81 °F (1973)
Min Temperature 51 °F 35 °F 12 °F (1960)
Degree Days  
Heating Degree Days 1 20  
Month to date heating degree days 225 310  
Since 1 July heating degree days 3391 3881  
Cooling Degree Days 0 0  
Month to date cooling degree days 0 0  
Year to date cooling degree days 0 0  
Growing Degree Days 14 (Base 50)    
Moisture  
Dew Point 53 °F    
Average Humidity 68    
Maximum Humidity 93    
Minimum Humidity 43    
Precipitation  
Precipitation 0.00 in 0.14 in 1.43 in (1933)
Month to date precipitation 1.83 1.78  
Year to date precipitation 8.46 8.18  
Snow  
Snow 0.00 in 0.10 in 2.50 in (1940)
Month to date snowfall 5.3 0.8  
Since 1 July snowfall 7.6 12.1  
Snow Depth 0.00 in    
Sea Level Pressure  
Sea Level Pressure 30.17 in    
Wind  
Wind Speed 7 mph (SSW)    
Max Wind Speed 17 mph    
Max Gust Speed 22 mph    
Visibility 10 miles    
Events      
T = Trace of Precipitation, MM = Missing Value Source: NWS Daily Summary

Daily Weather History Graph

Daily Weather History Graph

Search for Another Location

Airport or City:

Trip Planner

Search our weather history database for the weather conditions in past years. The results will help you decide how hot, cold, wet, or windy it might be!

Date:

Astronomy

Mar. 14, 2012 Rise Set
Actual Time 7:50 AM EDT 7:45 PM EDT
Civil Twilight 7:24 AM EDT 8:11 PM EDT
Nautical Twilight 6:53 AM EDT 8:41 PM EDT
Astronomical Twilight 6:22 AM EDT 9:12 PM EDT
Moon 2:13 AM EDT (3/14) 12:06 PM EDT (3/14)
Length of Visible Light 12h 47m
Length of Day
11h 54m
Waning Gibbous, 54% of the Moon is Illuminated
Mar 14
Waning Gibbous
Mar 14
Last Quarter
Mar 22
New
Mar 30
First Quarter
Apr 6
Full

Hourly Weather History & Observations

Time (EDT) Temp. Dew Point Humidity Pressure Visibility Wind Dir Wind Speed Gust Speed Precip Events Conditions
12:54 AM 57.0 °F 54.0 °F 89% 30.16 in 10.0 mi SSE 5.8 mph - N/A   Scattered Clouds
1:54 AM 57.9 °F 54.0 °F 87% 30.15 in 10.0 mi SSE 3.5 mph - N/A   Clear
2:54 AM 55.0 °F 53.1 °F 93% 30.15 in 10.0 mi SSE 6.9 mph - N/A   Clear
3:54 AM 55.0 °F 52.0 °F 89% 30.14 in 10.0 mi SSE 6.9 mph - N/A   Clear
4:54 AM 54.0 °F 51.1 °F 90% 30.14 in 10.0 mi South 6.9 mph - N/A   Partly Cloudy
5:54 AM 54.0 °F 51.1 °F 90% 30.15 in 10.0 mi South 5.8 mph - N/A   Mostly Cloudy
6:54 AM 54.0 °F 50.0 °F 86% 30.17 in 10.0 mi South 5.8 mph - N/A   Scattered Clouds
7:54 AM 53.1 °F 50.0 °F 89% 30.19 in 10.0 mi South 6.9 mph - N/A   Clear
8:54 AM 57.0 °F 52.0 °F 83% 30.20 in 10.0 mi South 5.8 mph - N/A   Partly Cloudy
9:54 AM 63.0 °F 55.0 °F 75% 30.22 in 10.0 mi South 3.5 mph - N/A   Clear
10:54 AM 66.9 °F 55.9 °F 68% 30.22 in 10.0 mi SW 4.6 mph - N/A   Clear
11:54 AM 70.0 °F 57.0 °F 63% 30.22 in 10.0 mi SW 5.8 mph - N/A   Clear
12:54 PM 73.0 °F 57.9 °F 59% 30.22 in 10.0 mi South 8.1 mph - N/A   Partly Cloudy
1:54 PM 75.0 °F 57.0 °F 53% 30.19 in 10.0 mi WSW 9.2 mph - N/A   Scattered Clouds
2:54 PM 75.9 °F 54.0 °F 46% 30.17 in 10.0 mi WSW 13.8 mph 18.4 mph N/A   Partly Cloudy
3:54 PM 75.9 °F 53.1 °F 45% 30.14 in 10.0 mi WSW 10.4 mph - N/A   Clear
4:54 PM 75.9 °F 51.1 °F 42% 30.14 in 10.0 mi SW 10.4 mph 21.9 mph N/A   Clear
5:54 PM 75.9 °F 51.1 °F 42% 30.14 in 10.0 mi SW 9.2 mph - N/A   Clear
6:54 PM 73.0 °F 52.0 °F 48% 30.13 in 10.0 mi SSW 6.9 mph - N/A   Clear
7:54 PM 70.0 °F 50.0 °F 49% 30.14 in 10.0 mi SW 4.6 mph - N/A   Clear
8:54 PM 68.0 °F 50.0 °F 52% 30.14 in 10.0 mi SSE 5.8 mph - N/A   Clear
9:54 PM 66.0 °F 50.0 °F 56% 30.16 in 10.0 mi South 5.8 mph - N/A   Clear
10:54 PM 63.0 °F 51.1 °F 65% 30.16 in 10.0 mi SSE 8.1 mph - N/A   Clear
11:54 PM 63.0 °F 50.0 °F 63% 30.15 in 10.0 mi South 6.9 mph - N/A   Clear